This demonstration page uses our WeatherBlox Daily Observations layout. Learn more.

Left ArrowRight Arrow

Hourly Observations for April 4, 2017

Temp ( °F °C ) Dew Point ( °F °C ) Humidity (%) Winds ( mph kmh ) Pressure ( in mb ) Visibility ( mi km ) Precip ( " mm )
12:53 am 00:53 Clear 53 11.7 43 6.1 69 69 Calm 29.93 1014 10 16 0.00 0.00
1:53 am 01:53 Clear 54 12.2 39 3.9 57 57 NW 5 7 29.94 1014 10 16 0.00 0.00
2:53 am 02:53 Clear 54 12.2 40 4.4 59 59 Calm 29.93 1014 10 16 0.00 0.00
3:53 am 03:53 Clear 52 11.1 41 5 66 66 WNW 5 7 29.93 1014 10 16 0.00 0.00
4:53 am 04:53 Clear 53 11.7 39 3.9 59 59 Calm 29.93 1014 10 16 0.00 0.00
5:53 am 05:53 Cloudy 52 11.1 42 5.6 69 69 Calm 29.95 1014 10 16 0.00 0.00
6:53 am 06:53 Mostly Cloudy 51 10.6 44 6.7 77 77 Calm 29.96 1014 10 16 0.00 0.00
7:53 am 07:53 Sunny 54 12.2 43 6.1 67 67 Calm 29.97 1015 10 16 0.00 0.00
8:53 am 08:53 Sunny 56 13.3 43 6.1 62 62 W 5 7 29.98 1015 10 16 0.00 0.00
9:53 am 09:53 Sunny 62 16.7 41 5 46 46 NW 5 7 29.99 1016 10 16 0.00 0.00
10:53 am 10:53 Sunny 67 19.4 38 3.3 35 35 SE 5 7 29.99 1016 10 16 0.00 0.00
11:53 am 11:53 Sunny 68 20 38 3.3 33 33 SSE 6 9 30.00 1016 10 16 0.00 0.00
12:53 pm 12:53 Sunny 70 21.1 35 1.7 28 28 Calm 29.98 1015 10 16 0.00 0.00
1:53 pm 13:53 Sunny 72 22.2 36 2.2 27 27 ESE 3 6 29.98 1015 10 16 0.00 0.00
2:53 pm 14:53 Sunny 71 21.7 41 5 34 34 S 8 13 29.96 1015 10 16 0.00 0.00
3:53 pm 15:53 Sunny 72 22.2 41 5 33 33 W 6 9 29.96 1015 10 16 0.00 0.00
4:53 pm 16:53 Sunny 72 22.2 41 5 33 33 WSW 7 11 29.97 1015 10 16 0.00 0.00
5:53 pm 17:53 Sunny 71 21.7 42 5.6 35 35 S 8 13 29.97 1015 10 16 0.00 0.00
6:53 pm 18:53 Sunny 68 20 47 8.3 47 47 SSE 3 6 29.97 1015 10 16 0.00 0.00
7:53 pm 19:53 Clear 66 18.9 46 7.8 49 49 Calm 29.98 1015 10 16 0.00 0.00
8:53 pm 20:53 Clear 60 15.6 46 7.8 60 60 Calm 30.00 1016 7 11 0.00 0.00
9:53 pm 21:53 Clear 58 14.4 50 10 75 75 NNE 5 7 30.02 1017 10 16 0.00 0.00
10:53 pm 22:53 Clear 55 12.8 48 8.9 77 77 WNW 3 6 30.03 1017 10 16 0.00 0.00
11:53 pm 23:53 Clear 54 12.2 47 8.3 77 77 Calm 30.03 1017 10 16 0.00 0.00

Powered by AerisWeather